Regional Weather Roundup
Issued by NWS

Home | Current Version | Previous Version | Graphics & Text | Print | Product List | Glossary Off
Versions: 1 2 3 4 5 6 7 8 9 10 11 12 13 14 15 16 17 18 19 20 21 22 23 24 25 26 27 28 29 30 31 32 33 34 35 36 37 38 39 40 41 42 43 44 45 46 47 48 49 50

000
ASUS43 KDMX 080707
RWRIA

WEATHER ROUNDUP FOR IOWA
NATIONAL WEATHER SERVICE DES MOINES IA
200 AM CDT WED JUL 08 2015

NOTE: "FAIR" INDICATES FEW OR NO CLOUDS BELOW 12,000 FEET WITH NO
SIGNIFICANT WEATHER AND/OR OBSTRUCTIONS TO VISIBILITY.

* - THESE STATIONS ARE NOT NWS STATIONS...THUS NOT UNDER NWS
QUALITY CONTROL.  THEY ALSO DO NOT REPORT WEATHER SUCH
AS PRECIPITATION OR FOG.

IAZ001>003-012>014-020>022-031>034-043>046-080800-
   NORTHWEST IOWA

CITY           SKY/WX    TMP DP  RH WIND       PRES   REMARKS
CARROLL *      CLOUDY    52  52 100 CALM      30.11S
CHEROKEE *     PTCLDY    54  54 100 CALM      30.11F
DENISON *      PTCLDY    54  54 100 NE5       30.09S
LE MARS *        N/A     55  54  94 CALM      30.11F
ORANGE CITY *  CLEAR     54  48  82 E3        30.11F
SHELDON *      CLEAR     52  52 100 SE3       30.10F
SIOUX CITY     PTCLDY    57  51  80 E3        30.10F
SPENCER        PTCLDY    50  47  89 CALM      30.12F
STORM LAKE *   CLEAR     54  50  87 SE5       30.12F
$$

IAZ055>058-069>071-079>083-090>094-080800-
   SOUTHWEST IOWA

CITY           SKY/WX    TMP DP  RH WIND       PRES   REMARKS
ATLANTIC *     PTCLDY    52  52 100 N3        30.10S
AUDUBON *      CLEAR     52  48  87 CALM      30.11F
CLARINDA *     CLEAR     59  55  88 N6        30.09F
COUNCIL BLFS * CLEAR     57  54  88 E7        30.09F
CRESTON *      CLEAR     57  54  88 NE6       30.09S
HARLAN  *      CLEAR     50  50 100 CALM      30.13F
LAMONI         CLOUDY    61  54  77 NE6       30.08F
RED OAK *      CLEAR     55  54  94 N5        30.09S
SHENANDOAH *     N/A     55  54  94 NE6       30.09S
$$

IAZ047>049-059>061-072>074-084-080800-
   CENTRAL IOWA

CITY           SKY/WX    TMP DP  RH WIND       PRES   REMARKS
AMES           PTCLDY    53  51  93 CALM      30.11S
ANKENY *       CLEAR     54  54 100 CALM      30.10F
CHARITON *     CLOUDY    59  55  88 NE5       30.09S
DES MOINES     MOCLDY    60  51  72 E6        30.09F
GRINNELL*      CLOUDY    57  54  88 E6        30.11S
KNOXVILLE *    PTCLDY    61  52  72 NE5       30.08F
MARSHALLTOWN   MOCLDY    55  51  86 E3        30.10F
PELLA *        MOCLDY    59  57  94 CALM      30.10F
PERRY *          N/A     54  52  94 CALM      30.10F
$$

IAZ004>006-015-016-023>025-035-036-080800-
   NORTH CENTRAL IOWA

CITY           SKY/WX    TMP DP  RH WIND       PRES   REMARKS
ALGONA *       CLEAR     57  55  94 SE3       30.12S
CLARION *      CLEAR     54  50  87 E5        30.11F
ESTHERVILLE    PTCLDY    49  47  93 CALM      30.11F
FORT DODGE *   MOCLDY    54  48  82 CALM      30.12S
MASON CITY     MOCLDY    55  52  89 SE3       30.13F
FOREST CITY *  CLEAR     54  54 100 CALM      30.12S
IOWA FALLS *     N/A     54  50  87 CALM      30.12F
$$

IAZ007>011-017>019-026>030-037>042-050>054-066-080800-
   NORTHEAST IOWA

CITY           SKY/WX    TMP DP  RH WIND       PRES   REMARKS
CEDAR RAPIDS   CLOUDY    58  54  86 E6        30.09F
CHARLES CITY * CLOUDY    54  54 100 CALM      30.12F
CLINTON *      CLOUDY    59  54  82 SE8       30.14S
DECORAH *        N/A    N/A N/A N/A MISG        N/A
DUBUQUE        MOCLDY    54  49  83 CALM      30.12S
MONTICELLO *   CLEAR     54  54 100 CALM      30.11S
OELWEIN *        N/A     54  50  87 E5        30.12S
WATERLOO       PTCLDY    54  51  90 CALM      30.10F
$$

IAZ064-065-067-068-078-080800-
   EAST CENTRAL IOWA

CITY           SKY/WX    TMP DP  RH WIND       PRES   REMARKS
DAVENPORT      CLOUDY    59  54  83 E9        30.11S
IOWA CITY      CLOUDY    62  53  72 NE8       30.11F
MT. PLEASANT * CLOUDY    63  59  88 NE5       30.09F
MUSCATINE *    CLOUDY    61  55  82 NE3       30.10F
QUAD CITIES    CLOUDY    60  56  86 E8        30.11R
$$

IAZ062-063-075>077-085>089-095>099-080800-
   SOUTHEAST IOWA

CITY           SKY/WX    TMP DP  RH WIND       PRES   REMARKS
BURLINGTON     CLOUDY    65  57  75 E6        30.08F
FAIRFIELD *    CLOUDY    61  57  88 NE7       30.08F
FORT MADISON * PTCLDY    61  59  94 NE3       30.08F FOG
KEOKUK *       CLOUDY    64  59  82 NE7       30.07S
OSKALOOSA *      N/A     57  55  94 CALM      30.10S
CENTERVILLE *  CLEAR     59  57  94 NE3       30.09F
OTTUMWA        CLOUDY    60  56  86 NE7       30.07F
WASHINGTON *   CLOUDY    61  57  88 NE6       30.10F
$$

ABBREVIATIONS USED IN REMARKS
   TC - TEMPERATURES IN CELSIUS
  WCI - WIND CHILL INDEX
   HX - HEAT INDEX
  VSB - VISIBILITY
$$



USA.gov is the U.S. government's official web portal to all federal, state and local government web resources and services.